This is the latest recevied weather packets stored in our database for station/object KC5CAM-13. If no packets are shown the sender has not sent any weather packets the latest 1 day(s).
| Time | Temp. | Humidity | Pressure | Rain* | Wind** | Luminosity | Snow |
|---|---|---|---|---|---|---|---|
| 1778014344 | 31.11° C | 51% | 1005 hPa | 0 mm | 0.45 m/s, 320° | 361 W/m² | - |
| 1778014040 | 31.67° C | 46% | 1005.2 hPa | 0 mm | 0.89 m/s, 328° | 260 W/m² | - |
| 1778013738 | 32.22° C | 48% | 1005.2 hPa | 0 mm | 0 m/s | 299 W/m² | - |
| 1778013435 | 32.22° C | 50% | 1005 hPa | 0 mm | 0.89 m/s, 242° | 497 W/m² | - |
| 1778013132 | 32.22° C | 50% | 1005.1 hPa | 0 mm | 0.45 m/s, 18° | 737 W/m² | - |
| 1778012827 | 32.22° C | 54% | 1005 hPa | 0 mm | 0.45 m/s, 216° | 789 W/m² | - |
| 1778012524 | 31.67° C | 54% | 1005.1 hPa | 0 mm | 0.45 m/s, 1° | 309 W/m² | - |
| 1778012220 | 31.11° C | 55% | 1005 hPa | 0 mm | 1.34 m/s, 151° | 694 W/m² | - |
| 1778011927 | 30.56° C | 61% | 1005.2 hPa | 0 mm | 0.45 m/s, 141° | 289 W/m² | - |
| 1778011616 | 30.56° C | 60% | 1005.4 hPa | 0 mm | 1.34 m/s, 246° | 158 W/m² | - |
| 1778011313 | 30.56° C | 59% | 1005.3 hPa | 0 mm | 0.89 m/s, 198° | 416 W/m² | - |
| 1778011008 | 30.56° C | 61% | 1005.3 hPa | 0 mm | 1.34 m/s, 321° | 538 W/m² | - |
| 1778010706 | 31.11° C | 60% | 1005.2 hPa | 0 mm | 0.45 m/s, 143° | 638 W/m² | - |
| 1778010403 | 31.11° C | 61% | 1005.2 hPa | 0 mm | 0.89 m/s, 144° | 412 W/m² | - |
| 1778010099 | 30.56° C | 62% | 1005.3 hPa | 0 mm | 0.89 m/s, 216° | 690 W/m² | - |
| 1778009796 | 30° C | 62% | 1005.3 hPa | 0 mm | 1.34 m/s, 184° | 536 W/m² | - |
| 1778009493 | 30° C | 64% | 1005.5 hPa | 0 mm | 0.45 m/s, 251° | 548 W/m² | - |
| 1778009192 | 30° C | 63% | 1005.4 hPa | 0 mm | 1.34 m/s, 157° | 436 W/m² | - |
| 1778008889 | 30.56° C | 65% | 1005.2 hPa | 0 mm | 0.45 m/s, 316° | 590 W/m² | - |
| 1778008587 | 30.56° C | 62% | 1005.3 hPa | 0 mm | 0.89 m/s, 311° | 620 W/m² | - |
| 1778008285 | 30.56° C | 65% | 1005.1 hPa | 0 mm | 1.79 m/s, 155° | 769 W/m² | - |
| 1778007980 | 30° C | 64% | 1005.3 hPa | 0 mm | 1.34 m/s, 157° | 828 W/m² | - |
| 1778007675 | 29.44° C | 65% | 1005.1 hPa | 0 mm | 2.24 m/s, 35° | 675 W/m² | - |
| 1778007373 | 28.89° C | 66% | 1005 hPa | 0 mm | 1.79 m/s, 115° | 463 W/m² | - |
| 1778007069 | 28.89° C | 66% | 1005.2 hPa | 0 mm | 2.24 m/s, 138° | 570 W/m² | - |
* Rain latest hour (hover to see other rain measurements)
** Current wind speed in m/s (hover to see current wind gust speed)